owner,sensor,date,latitude,longitude,vertical_datum,direction_of_sea_water_velocity,sea_water_speed,upward_sea_water_velocity,qcFlag 
TABS,ioos:station:wmo:42049:1,2017-10-01T00:00:00Z,28.3507,-96.0058,2.0,231.5860188,21.08365244,-99999.0,'11111222,11111222,99999999' 
TABS,ioos:station:wmo:42049:1,2017-10-01T00:30:00Z,28.3507,-96.0058,2.0,236.3196387,15.81450284,-99999.0,'11111222,11111222,99999999' 
TABS,ioos:station:wmo:42049:1,2017-10-01T01:00:00Z,28.3507,-96.0058,2.0,238.4627727,15.94502117,-99999.0,'11111222,11111222,99999999' 
TABS,ioos:station:wmo:42049:1,2017-10-01T01:30:00Z,28.3507,-96.0058,2.0,241.3398741,17.61857259,-99999.0,'11111222,11111222,99999999' 
TABS,ioos:station:wmo:42049:1,2017-10-01T02:00:00Z,28.3507,-96.0058,2.0,255.215426,15.79284015,-99999.0,'11111222,11111222,99999999' 
TABS,ioos:station:wmo:42049:1,2017-10-01T02:30:00Z,28.3507,-96.0058,2.0,264.7495133,15.8464791,-99999.0,'11111222,11111222,99999999' 
TABS,ioos:station:wmo:42049:1,2017-10-01T03:00:00Z,28.3507,-96.0058,2.0,273.6210009,16.15223823,-99999.0,'11111222,11111222,99999999' 
TABS,ioos:station:wmo:42049:1,2017-10-01T03:30:00Z,28.3507,-96.0058,2.0,280.7958493,9.610078043,-99999.0,'11133222,11111222,99999999' 
TABS,ioos:station:wmo:42049:1,2017-10-01T04:00:00Z,28.3507,-96.0058,2.0,296.7089179,7.142023523,-99999.0,'11133222,11111222,99999999' 
TABS,ioos:station:wmo:42049:1,2017-10-01T04:30:00Z,28.3507,-96.0058,2.0,279.8382489,3.511637795,-99999.0,'11133222,11111222,99999999' 
TABS,ioos:station:wmo:42049:1,2017-10-01T05:00:00Z,28.3507,-96.0058,2.0,49.19776377,1.545639026,-99999.0,'11133222,11111222,99999999' 
TABS,ioos:station:wmo:42049:1,2017-10-01T05:30:00Z,28.3507,-96.0058,2.0,26.63722417,7.115173926,-99999.0,'11133222,11111222,99999999' 
TABS,ioos:station:wmo:42049:1,2017-10-01T06:00:00Z,28.3507,-96.0058,2.0,45.28719625,9.878405742,-99999.0,'11133222,11111222,99999999' 
TABS,ioos:station:wmo:42049:1,2017-10-01T06:30:00Z,28.3507,-96.0058,2.0,35.86472831,9.575473879,-99999.0,'11133222,11111222,99999999' 
TABS,ioos:station:wmo:42049:1,2017-10-01T07:00:00Z,28.3507,-96.0058,2.0,60.98098501,10.96679078,-99999.0,'11111222,11111222,99999999' 
TABS,ioos:station:wmo:42049:1,2017-10-01T07:30:00Z,28.3507,-96.0058,2.0,113.0993231,3.033183146,-99999.0,'11133222,11111222,99999999' 
TABS,ioos:station:wmo:42049:1,2017-10-01T08:00:00Z,28.3507,-96.0058,2.0,204.8830062,5.180965161,-99999.0,'11133222,11111222,99999999' 
TABS,ioos:station:wmo:42049:1,2017-10-01T08:30:00Z,28.3507,-96.0058,2.0,168.3104477,0.296141858,-99999.0,'11133222,11111222,99999999' 
TABS,ioos:station:wmo:42049:1,2017-10-01T09:00:00Z,28.3507,-96.0058,2.0,62.31686821,3.895972279,-99999.0,'11133222,11111222,99999999' 
TABS,ioos:station:wmo:42049:1,2017-10-01T09:30:00Z,28.3507,-96.0058,2.0,66.48735877,6.466938998,-99999.0,'11133222,11111222,99999999' 
TABS,ioos:station:wmo:42049:1,2017-10-01T10:00:00Z,28.3507,-96.0058,2.0,56.82156593,4.038378387,-99999.0,'11133222,11111222,99999999' 
TABS,ioos:station:wmo:42049:1,2017-10-01T10:30:00Z,28.3507,-96.0058,2.0,51.47143075,5.458287277,-99999.0,'11133222,11111222,99999999' 
TABS,ioos:station:wmo:42049:1,2017-10-01T11:00:00Z,28.3507,-96.0058,2.0,58.83437756,5.352504087,-99999.0,'11133222,11111222,99999999' 
TABS,ioos:station:wmo:42049:1,2017-10-01T11:30:00Z,28.3507,-96.0058,2.0,104.4039569,1.889391436,-99999.0,'11133222,11111222,99999999' 
TABS,ioos:station:wmo:42049:1,2017-10-01T12:00:00Z,28.3507,-96.0058,2.0,170.7352872,2.857271426,-99999.0,'11133222,11111222,99999999' 
TABS,ioos:station:wmo:42049:1,2017-10-01T12:30:00Z,28.3507,-96.0058,2.0,124.8104547,4.396839774,-99999.0,'11133222,11111222,99999999' 
TABS,ioos:station:wmo:42049:1,2017-10-01T13:00:00Z,28.3507,-96.0058,2.0,123.9904126,3.702674709,-99999.0,'11133222,11111222,99999999' 
TABS,ioos:station:wmo:42049:1,2017-10-01T13:30:00Z,28.3507,-96.0058,2.0,18.96074955,1.723513853,-99999.0,'11133222,11111222,99999999' 
TABS,ioos:station:wmo:42049:1,2017-10-01T14:00:00Z,28.3507,-96.0058,2.0,55.3366352,3.428541964,-99999.0,'11133222,11111222,99999999' 
TABS,ioos:station:wmo:42049:1,2017-10-01T14:30:00Z,28.3507,-96.0058,2.0,64.4838986,5.130399595,-99999.0,'11133222,11111222,99999999' 
TABS,ioos:station:wmo:42049:1,2017-10-01T15:00:00Z,28.3507,-96.0058,2.0,71.00794188,3.902435137,-99999.0,'11133222,11111222,99999999' 
TABS,ioos:station:wmo:42049:1,2017-10-01T15:30:00Z,28.3507,-96.0058,2.0,85.35673827,1.976486782,-99999.0,'11133222,11111222,99999999' 
TABS,ioos:station:wmo:42049:1,2017-10-01T16:00:00Z,28.3507,-96.0058,2.0,144.4621949,0.946255779,-99999.0,'11133222,11111222,99999999' 
TABS,ioos:station:wmo:42049:1,2017-10-01T16:30:00Z,28.3507,-96.0058,2.0,229.3266927,3.467636082,-99999.0,'11133222,11111222,99999999' 
TABS,ioos:station:wmo:42049:1,2017-10-01T17:00:00Z,28.3507,-96.0058,2.0,237.4374967,3.381552898,-99999.0,'11133222,11111222,99999999' 
TABS,ioos:station:wmo:42049:1,2017-10-01T17:30:00Z,28.3507,-96.0058,2.0,216.002944,8.726998338,-99999.0,'11133222,11111222,99999999' 
TABS,ioos:station:wmo:42049:1,2017-10-01T18:00:00Z,28.3507,-96.0058,2.0,210.9986784,11.16456,-99999.0,'11111222,11111222,99999999' 
TABS,ioos:station:wmo:42049:1,2017-10-01T18:30:00Z,28.3507,-96.0058,2.0,236.947708,19.6736626,-99999.0,'11111222,11111222,99999999' 
TABS,ioos:station:wmo:42049:1,2017-10-01T19:00:00Z,28.3507,-96.0058,2.0,241.9676884,20.78882873,-99999.0,'11111222,11111222,99999999' 
TABS,ioos:station:wmo:42049:1,2017-10-01T19:30:00Z,28.3507,-96.0058,2.0,236.9299472,23.0546915,-99999.0,'11111222,11111222,99999999' 
TABS,ioos:station:wmo:42049:1,2017-10-01T20:00:00Z,28.3507,-96.0058,2.0,237.6836165,22.09174054,-99999.0,'11111222,11111222,99999999' 
TABS,ioos:station:wmo:42049:1,2017-10-01T20:30:00Z,28.3507,-96.0058,2.0,237.9832909,22.12533616,-99999.0,'11111222,11111222,99999999' 
TABS,ioos:station:wmo:42049:1,2017-10-01T21:00:00Z,28.3507,-96.0058,2.0,247.6736263,17.84792705,-99999.0,'11111222,11111222,99999999' 
TABS,ioos:station:wmo:42049:1,2017-10-01T21:30:00Z,28.3507,-96.0058,2.0,248.5801519,20.89304669,-99999.0,'11111222,11111222,99999999' 
TABS,ioos:station:wmo:42049:1,2017-10-01T22:00:00Z,28.3507,-96.0058,2.0,251.2434928,20.30846621,-99999.0,'11111222,11111222,99999999' 
TABS,ioos:station:wmo:42049:1,2017-10-01T22:30:00Z,28.3507,-96.0058,2.0,252.4977447,19.41895981,-99999.0,'11111222,11111222,99999999' 
TABS,ioos:station:wmo:42049:1,2017-10-01T23:00:00Z,28.3507,-96.0058,2.0,255.0934363,19.00970805,-99999.0,'11111222,11111222,99999999' 
TABS,ioos:station:wmo:42049:1,2017-10-01T23:30:00Z,28.3507,-96.0058,2.0,255.1103946,16.61795715,-99999.0,'11111222,11111222,99999999' 
TABS,ioos:station:wmo:42049:1,2017-10-02T00:00:00Z,28.3507,-96.0058,2.0,258.6896731,17.94854869,-99999.0,'11111222,11111222,99999999' 
TABS,ioos:station:wmo:42049:1,2017-10-02T00:30:00Z,28.3507,-96.0058,2.0,259.7768647,16.22760919,-99999.0,'11111222,11111222,99999999' 
TABS,ioos:station:wmo:42049:1,2017-10-02T01:00:00Z,28.3507,-96.0058,2.0,257.3379964,16.37829356,-99999.0,'11111222,11111222,99999999' 
TABS,ioos:station:wmo:42049:1,2017-10-02T01:30:00Z,28.3507,-96.0058,2.0,258.6389839,13.30060149,-99999.0,'11111222,11111222,99999999' 
TABS,ioos:station:wmo:42049:1,2017-10-02T02:00:00Z,28.3507,-96.0058,2.0,254.2515707,13.5589417,-99999.0,'11111222,11111222,99999999' 
TABS,ioos:station:wmo:42049:1,2017-10-02T02:30:00Z,28.3507,-96.0058,2.0,257.2834865,10.94853872,-99999.0,'11111222,11111222,99999999' 
TABS,ioos:station:wmo:42049:1,2017-10-02T03:00:00Z,28.3507,-96.0058,2.0,255.0284703,11.14842141,-99999.0,'11111222,11111222,99999999' 
TABS,ioos:station:wmo:42049:1,2017-10-02T03:30:00Z,28.3507,-96.0058,2.0,269.5582863,7.790231062,-99999.0,'11133222,11111222,99999999' 
TABS,ioos:station:wmo:42049:1,2017-10-02T04:00:00Z,28.3507,-96.0058,2.0,257.7215607,9.169738273,-99999.0,'11133222,11111222,99999999' 
TABS,ioos:station:wmo:42049:1,2017-10-02T04:30:00Z,28.3507,-96.0058,2.0,267.6995484,9.717828976,-99999.0,'11133222,11111222,99999999' 
TABS,ioos:station:wmo:42049:1,2017-10-02T05:00:00Z,28.3507,-96.0058,2.0,260.4071543,11.58193853,-99999.0,'11111222,11111222,99999999' 
TABS,ioos:station:wmo:42049:1,2017-10-02T05:30:00Z,28.3507,-96.0058,2.0,275.8718866,11.33948852,-99999.0,'11111222,11111222,99999999' 
TABS,ioos:station:wmo:42049:1,2017-10-02T06:00:00Z,28.3507,-96.0058,2.0,255.2250634,12.23451266,-99999.0,'11111222,11111222,99999999' 
TABS,ioos:station:wmo:42049:1,2017-10-02T06:30:00Z,28.3507,-96.0058,2.0,253.3108456,10.48149321,-99999.0,'11111222,11111222,99999999' 
TABS,ioos:station:wmo:42049:1,2017-10-02T07:00:00Z,28.3507,-96.0058,2.0,250.7403325,7.912837671,-99999.0,'11133222,11111222,99999999' 
TABS,ioos:station:wmo:42049:1,2017-10-02T07:30:00Z,28.3507,-96.0058,2.0,243.9145184,11.21203817,-99999.0,'11111222,11111222,99999999' 
TABS,ioos:station:wmo:42049:1,2017-10-02T08:00:00Z,28.3507,-96.0058,2.0,250.7468688,15.95215346,-99999.0,'11111222,11111222,99999999' 
TABS,ioos:station:wmo:42049:1,2017-10-02T08:30:00Z,28.3507,-96.0058,2.0,245.833303,22.54590428,-99999.0,'11111222,11111222,99999999' 
TABS,ioos:station:wmo:42049:1,2017-10-02T09:00:00Z,28.3507,-96.0058,2.0,277.3548844,52.34059705,-99999.0,'11111222,11111222,99999999' 
TABS,ioos:station:wmo:42049:1,2017-10-02T09:30:00Z,28.3507,-96.0058,2.0,283.3458732,72.82661395,-99999.0,'11111222,11111222,99999999' 
TABS,ioos:station:wmo:42049:1,2017-10-02T10:00:00Z,28.3507,-96.0058,2.0,282.3544566,86.42115771,-99999.0,'11111222,11111222,99999999' 
TABS,ioos:station:wmo:42049:1,2017-10-02T10:30:00Z,28.3507,-96.0058,2.0,277.5896906,77.76116833,-99999.0,'11111222,11111222,99999999' 
TABS,ioos:station:wmo:42049:1,2017-10-02T11:00:00Z,28.3507,-96.0058,2.0,280.0788332,75.37307344,-99999.0,'11111222,11111222,99999999' 
TABS,ioos:station:wmo:42049:1,2017-10-02T11:30:00Z,28.3507,-96.0058,2.0,279.5488739,72.15972907,-99999.0,'11111222,11111222,99999999' 
TABS,ioos:station:wmo:42049:1,2017-10-02T12:00:00Z,28.3507,-96.0058,2.0,280.3138472,65.51858133,-99999.0,'11111222,11111222,99999999' 
TABS,ioos:station:wmo:42049:1,2017-10-02T12:30:00Z,28.3507,-96.0058,2.0,281.0318248,67.78245938,-99999.0,'11111222,11111222,99999999' 
TABS,ioos:station:wmo:42049:1,2017-10-02T13:00:00Z,28.3507,-96.0058,2.0,278.9780148,65.68467782,-99999.0,'11111222,11111222,99999999' 
TABS,ioos:station:wmo:42049:1,2017-10-02T13:30:00Z,28.3507,-96.0058,2.0,281.7438674,66.86967175,-99999.0,'11111222,11111222,99999999' 
TABS,ioos:station:wmo:42049:1,2017-10-02T14:00:00Z,28.3507,-96.0058,2.0,280.2959447,66.1348418,-99999.0,'11111222,11111222,99999999' 
TABS,ioos:station:wmo:42049:1,2017-10-02T14:30:00Z,28.3507,-96.0058,2.0,279.6494937,64.55324934,-99999.0,'11111222,11111222,99999999' 
TABS,ioos:station:wmo:42049:1,2017-10-02T15:00:00Z,28.3507,-96.0058,2.0,278.6850966,61.65694284,-99999.0,'11111222,11111222,99999999' 
TABS,ioos:station:wmo:42049:1,2017-10-02T15:30:00Z,28.3507,-96.0058,2.0,276.5482122,61.56156268,-99999.0,'11111222,11111222,99999999' 
TABS,ioos:station:wmo:42049:1,2017-10-02T16:00:00Z,28.3507,-96.0058,2.0,276.8465409,60.90425683,-99999.0,'11111222,11111222,99999999' 
TABS,ioos:station:wmo:42049:1,2017-10-02T16:30:00Z,28.3507,-96.0058,2.0,276.5326783,63.90487462,-99999.0,'11111222,11111222,99999999' 
TABS,ioos:station:wmo:42049:1,2017-10-02T17:00:00Z,28.3507,-96.0058,2.0,273.3445833,61.88538196,-99999.0,'11111222,11111222,99999999' 
TABS,ioos:station:wmo:42049:1,2017-10-02T17:30:00Z,28.3507,-96.0058,2.0,273.5789233,65.68807807,-99999.0,'11111222,11111222,99999999' 
TABS,ioos:station:wmo:42049:1,2017-10-02T18:00:00Z,28.3507,-96.0058,2.0,268.7566012,62.69475257,-99999.0,'11111222,11111222,99999999' 
TABS,ioos:station:wmo:42049:1,2017-10-02T18:30:00Z,28.3507,-96.0058,2.0,262.1545125,71.35785661,-99999.0,'11111222,11111222,99999999' 
TABS,ioos:station:wmo:42049:1,2017-10-02T19:00:00Z,28.3507,-96.0058,2.0,258.043374,75.10941352,-99999.0,'11111222,11111222,99999999' 
TABS,ioos:station:wmo:42049:1,2017-10-02T19:30:00Z,28.3507,-96.0058,2.0,251.7841593,75.94581753,-99999.0,'11111222,11111222,99999999' 
TABS,ioos:station:wmo:42049:1,2017-10-02T20:00:00Z,28.3507,-96.0058,2.0,251.4990426,82.82010625,-99999.0,'11111222,11111222,99999999' 
TABS,ioos:station:wmo:42049:1,2017-10-02T20:30:00Z,28.3507,-96.0058,2.0,252.6226148,84.77930467,-99999.0,'11111222,11111222,99999999' 
TABS,ioos:station:wmo:42049:1,2017-10-02T21:00:00Z,28.3507,-96.0058,2.0,248.4366234,86.57934396,-99999.0,'11111222,11111222,99999999' 
TABS,ioos:station:wmo:42049:1,2017-10-02T21:30:00Z,28.3507,-96.0058,2.0,248.7504309,90.74981267,-99999.0,'11111222,11111222,99999999' 
TABS,ioos:station:wmo:42049:1,2017-10-02T22:00:00Z,28.3507,-96.0058,2.0,250.2471942,84.03444591,-99999.0,'11111222,11111222,99999999' 
TABS,ioos:station:wmo:42049:1,2017-10-02T22:30:00Z,28.3507,-96.0058,2.0,251.3179859,85.19887441,-99999.0,'11111222,11111222,99999999' 
TABS,ioos:station:wmo:42049:1,2017-10-02T23:00:00Z,28.3507,-96.0058,2.0,252.6986127,74.7835383,-99999.0,'11111222,11111222,99999999' 
TABS,ioos:station:wmo:42049:1,2017-10-02T23:30:00Z,28.3507,-96.0058,2.0,252.3680671,89.5360447,-99999.0,'11111222,11111222,99999999' 
TABS,ioos:station:wmo:42049:1,2017-10-03T00:00:00Z,28.3507,-96.0058,2.0,251.4527865,95.54207712,-99999.0,'11111222,11111222,99999999' 
TABS,ioos:station:wmo:42049:1,2017-10-03T00:30:00Z,28.3507,-96.0058,2.0,251.8329887,100.6152916,-99999.0,'11111222,11111222,99999999' 
TABS,ioos:station:wmo:42049:1,2017-10-03T01:00:00Z,28.3507,-96.0058,2.0,253.2998299,100.8849691,-99999.0,'11111222,11111222,99999999' 
TABS,ioos:station:wmo:42049:1,2017-10-03T01:30:00Z,28.3507,-96.0058,2.0,253.7741982,101.4612187,-99999.0,'11111222,11111222,99999999' 
TABS,ioos:station:wmo:42049:1,2017-10-03T02:00:00Z,28.3507,-96.0058,2.0,254.9065188,102.0399691,-99999.0,'11111222,11111222,99999999' 
TABS,ioos:station:wmo:42049:1,2017-10-03T02:30:00Z,28.3507,-96.0058,2.0,253.8160739,97.16008697,-99999.0,'11111222,11111222,99999999' 
TABS,ioos:station:wmo:42049:1,2017-10-03T03:00:00Z,28.3507,-96.0058,2.0,254.1804221,97.2844818,-99999.0,'11111222,11111222,99999999' 
TABS,ioos:station:wmo:42049:1,2017-10-03T03:30:00Z,28.3507,-96.0058,2.0,252.3479598,96.92338056,-99999.0,'11111222,11111222,99999999' 
TABS,ioos:station:wmo:42049:1,2017-10-03T04:00:00Z,28.3507,-96.0058,2.0,251.8304998,94.05979906,-99999.0,'11111222,11111222,99999999' 
TABS,ioos:station:wmo:42049:1,2017-10-03T04:30:00Z,28.3507,-96.0058,2.0,251.1239023,94.9565211,-99999.0,'11111222,11111222,99999999' 
TABS,ioos:station:wmo:42049:1,2017-10-03T05:00:00Z,28.3507,-96.0058,2.0,250.8772257,97.25652523,-99999.0,'11111222,11111222,99999999' 
TABS,ioos:station:wmo:42049:1,2017-10-03T05:30:00Z,28.3507,-96.0058,2.0,251.21629,96.21407641,-99999.0,'11111222,11111222,99999999' 
TABS,ioos:station:wmo:42049:1,2017-10-03T06:00:00Z,28.3507,-96.0058,2.0,250.5151792,93.74879893,-99999.0,'11111222,11111222,99999999' 
TABS,ioos:station:wmo:42049:1,2017-10-03T06:30:00Z,28.3507,-96.0058,2.0,247.8462861,89.18372553,-99999.0,'11111222,11111222,99999999' 
TABS,ioos:station:wmo:42049:1,2017-10-03T07:00:00Z,28.3507,-96.0058,2.0,246.2855263,85.95798334,-99999.0,'11111222,11111222,99999999' 
TABS,ioos:station:wmo:42049:1,2017-10-03T07:30:00Z,28.3507,-96.0058,2.0,244.4466351,77.47842538,-99999.0,'11111222,11111222,99999999' 
TABS,ioos:station:wmo:42049:1,2017-10-03T08:00:00Z,28.3507,-96.0058,2.0,246.5323341,59.91578423,-99999.0,'11111222,11111222,99999999' 
TABS,ioos:station:wmo:42049:1,2017-10-03T08:30:00Z,28.3507,-96.0058,2.0,246.2466468,48.03939425,-99999.0,'11111222,11111222,99999999' 
TABS,ioos:station:wmo:42049:1,2017-10-03T09:00:00Z,28.3507,-96.0058,2.0,244.0709782,41.87519194,-99999.0,'11111222,11111222,99999999' 
TABS,ioos:station:wmo:42049:1,2017-10-03T09:30:00Z,28.3507,-96.0058,2.0,254.2917974,42.0711552,-99999.0,'11111222,11111222,99999999' 
TABS,ioos:station:wmo:42049:1,2017-10-03T10:00:00Z,28.3507,-96.0058,2.0,266.7422607,44.7022203,-99999.0,'11111222,11111222,99999999' 
TABS,ioos:station:wmo:42049:1,2017-10-03T10:30:00Z,28.3507,-96.0058,2.0,265.1472471,42.91380314,-99999.0,'11111222,11111222,99999999' 
TABS,ioos:station:wmo:42049:1,2017-10-03T11:00:00Z,28.3507,-96.0058,2.0,264.4196865,39.69810701,-99999.0,'11111222,11111222,99999999' 
TABS,ioos:station:wmo:42049:1,2017-10-03T11:30:00Z,28.3507,-96.0058,2.0,255.341262,37.30417805,-99999.0,'11111222,11111222,99999999' 
TABS,ioos:station:wmo:42049:1,2017-10-03T12:00:00Z,28.3507,-96.0058,2.0,258.5416226,29.59990709,-99999.0,'11111222,11111222,99999999' 
TABS,ioos:station:wmo:42049:1,2017-10-03T12:30:00Z,28.3507,-96.0058,2.0,244.0801897,34.13350846,-99999.0,'11111222,11111222,99999999' 
TABS,ioos:station:wmo:42049:1,2017-10-03T13:00:00Z,28.3507,-96.0058,2.0,232.6358259,38.04741384,-99999.0,'11111222,11111222,99999999' 
TABS,ioos:station:wmo:42049:1,2017-10-03T13:30:00Z,28.3507,-96.0058,2.0,236.8944357,37.49691321,-99999.0,'11111222,11111222,99999999' 
TABS,ioos:station:wmo:42049:1,2017-10-03T14:00:00Z,28.3507,-96.0058,2.0,251.3200999,102.9741856,-99999.0,'11111222,11111222,99999999' 
TABS,ioos:station:wmo:42049:1,2017-10-03T14:30:00Z,28.3507,-96.0058,2.0,253.1432741,105.1476914,-99999.0,'11111222,11111222,99999999' 
TABS,ioos:station:wmo:42049:1,2017-10-03T15:00:00Z,28.3507,-96.0058,2.0,251.1016537,105.6551466,-99999.0,'11111222,11111222,99999999' 
TABS,ioos:station:wmo:42049:1,2017-10-03T15:30:00Z,28.3507,-96.0058,2.0,249.7921175,102.7441312,-99999.0,'11111222,11111222,99999999' 
TABS,ioos:station:wmo:42049:1,2017-10-03T16:00:00Z,28.3507,-96.0058,2.0,247.3089268,108.8770063,-99999.0,'11111222,11111222,99999999' 
TABS,ioos:station:wmo:42049:1,2017-10-03T16:30:00Z,28.3507,-96.0058,2.0,244.8265653,103.2786803,-99999.0,'11111222,11111222,99999999' 
TABS,ioos:station:wmo:42049:1,2017-10-03T17:00:00Z,28.3507,-96.0058,2.0,243.4541942,104.5630169,-99999.0,'11111222,11111222,99999999' 
TABS,ioos:station:wmo:42049:1,2017-10-03T17:30:00Z,28.3507,-96.0058,2.0,243.2257718,106.7550664,-99999.0,'11111222,11111222,99999999' 
TABS,ioos:station:wmo:42049:1,2017-10-03T18:00:00Z,28.3507,-96.0058,2.0,241.303155,110.0235838,-99999.0,'11111222,11111222,99999999' 
TABS,ioos:station:wmo:42049:1,2017-10-03T18:30:00Z,28.3507,-96.0058,2.0,241.8619084,106.4053631,-99999.0,'11111222,11111222,99999999' 
TABS,ioos:station:wmo:42049:1,2017-10-03T19:00:00Z,28.3507,-96.0058,2.0,239.6711808,103.6326753,-99999.0,'11111222,11111222,99999999' 
TABS,ioos:station:wmo:42049:1,2017-10-03T19:30:00Z,28.3507,-96.0058,2.0,237.1489874,103.1797621,-99999.0,'11111222,11111222,99999999' 
TABS,ioos:station:wmo:42049:1,2017-10-03T20:00:00Z,28.3507,-96.0058,2.0,235.0976918,103.7271777,-99999.0,'11111222,11111222,99999999' 
TABS,ioos:station:wmo:42049:1,2017-10-03T20:30:00Z,28.3507,-96.0058,2.0,232.3208673,101.4341087,-99999.0,'11111222,11111222,99999999' 
TABS,ioos:station:wmo:42049:1,2017-10-03T21:00:00Z,28.3507,-96.0058,2.0,231.5208809,97.87458506,-99999.0,'11111222,11111222,99999999' 
TABS,ioos:station:wmo:42049:1,2017-10-03T21:30:00Z,28.3507,-96.0058,2.0,236.6172648,72.82486526,-99999.0,'11111222,11111222,99999999' 
TABS,ioos:station:wmo:42049:1,2017-10-03T22:00:00Z,28.3507,-96.0058,2.0,241.3753694,72.8086705,-99999.0,'11111222,11111222,99999999' 
TABS,ioos:station:wmo:42049:1,2017-10-03T22:30:00Z,28.3507,-96.0058,2.0,242.4710185,75.79106148,-99999.0,'11111222,11111222,99999999' 
TABS,ioos:station:wmo:42049:1,2017-10-03T23:00:00Z,28.3507,-96.0058,2.0,246.0402885,92.56606398,-99999.0,'11111222,11111222,99999999' 
TABS,ioos:station:wmo:42049:1,2017-10-03T23:30:00Z,28.3507,-96.0058,2.0,242.7877894,92.30629556,-99999.0,'11111222,11111222,99999999' 
TABS,ioos:station:wmo:42049:1,2017-10-04T00:00:00Z,28.3507,-96.0058,2.0,248.9701438,112.7495863,-99999.0,'11111222,11111222,99999999' 
TABS,ioos:station:wmo:42049:1,2017-10-04T00:30:00Z,28.3507,-96.0058,2.0,247.7592713,127.9812689,-99999.0,'11111222,11111222,99999999' 
TABS,ioos:station:wmo:42049:1,2017-10-04T01:00:00Z,28.3507,-96.0058,2.0,245.910568,118.116523,-99999.0,'11111222,11111222,99999999' 
TABS,ioos:station:wmo:42049:1,2017-10-04T01:30:00Z,28.3507,-96.0058,2.0,246.0528225,118.7518459,-99999.0,'11111222,11111222,99999999' 
TABS,ioos:station:wmo:42049:1,2017-10-04T02:00:00Z,28.3507,-96.0058,2.0,244.2446975,110.0747405,-99999.0,'11111222,11111222,99999999' 
TABS,ioos:station:wmo:42049:1,2017-10-04T02:30:00Z,28.3507,-96.0058,2.0,243.9340587,109.7861649,-99999.0,'11111222,11111222,99999999' 
TABS,ioos:station:wmo:42049:1,2017-10-04T03:00:00Z,28.3507,-96.0058,2.0,245.3203842,106.0023113,-99999.0,'11111222,11111222,99999999' 
TABS,ioos:station:wmo:42049:1,2017-10-04T03:30:00Z,28.3507,-96.0058,2.0,243.7801035,110.4995443,-99999.0,'11111222,11111222,99999999' 
TABS,ioos:station:wmo:42049:1,2017-10-04T04:00:00Z,28.3507,-96.0058,2.0,242.2608788,112.0013116,-99999.0,'11111222,11111222,99999999' 
TABS,ioos:station:wmo:42049:1,2017-10-04T04:30:00Z,28.3507,-96.0058,2.0,250.2820127,128.6958387,-99999.0,'11111222,11111222,99999999' 
TABS,ioos:station:wmo:42049:1,2017-10-04T05:00:00Z,28.3507,-96.0058,2.0,247.6256602,121.3449636,-99999.0,'11111222,11111222,99999999' 
TABS,ioos:station:wmo:42049:1,2017-10-04T05:30:00Z,28.3507,-96.0058,2.0,245.3159205,112.9286399,-99999.0,'11111222,11111222,99999999' 
TABS,ioos:station:wmo:42049:1,2017-10-04T06:00:00Z,28.3507,-96.0058,2.0,244.8435561,117.1293494,-99999.0,'11111222,11111222,99999999' 
TABS,ioos:station:wmo:42049:1,2017-10-04T06:30:00Z,28.3507,-96.0058,2.0,246.13576,128.0140188,-99999.0,'11111222,11111222,99999999' 
TABS,ioos:station:wmo:42049:1,2017-10-04T07:00:00Z,28.3507,-96.0058,2.0,243.2702957,148.1624733,-99999.0,'11111222,11111222,99999999' 
TABS,ioos:station:wmo:42049:1,2017-10-04T07:30:00Z,28.3507,-96.0058,2.0,242.3155313,144.4909665,-99999.0,'11111222,11111222,99999999' 
TABS,ioos:station:wmo:42049:1,2017-10-04T08:00:00Z,28.3507,-96.0058,2.0,237.4626145,143.48007,-99999.0,'11111222,11111222,99999999' 
TABS,ioos:station:wmo:42049:1,2017-10-04T08:30:00Z,28.3507,-96.0058,2.0,244.1287703,100.4023491,-99999.0,'11111222,11111222,99999999' 
TABS,ioos:station:wmo:42049:1,2017-10-04T09:00:00Z,28.3507,-96.0058,2.0,243.716691,107.1805094,-99999.0,'11111222,11111222,99999999' 
TABS,ioos:station:wmo:42049:1,2017-10-04T09:30:00Z,28.3507,-96.0058,2.0,236.1000233,134.9733281,-99999.0,'11111222,11111222,99999999' 
TABS,ioos:station:wmo:42049:1,2017-10-04T10:00:00Z,28.3507,-96.0058,2.0,241.7562031,134.0605967,-99999.0,'11111222,11111222,99999999' 
TABS,ioos:station:wmo:42049:1,2017-10-04T10:30:00Z,28.3507,-96.0058,2.0,237.081061,125.0352114,-99999.0,'11111222,11111222,99999999' 
TABS,ioos:station:wmo:42049:1,2017-10-04T11:00:00Z,28.3507,-96.0058,2.0,239.8880711,87.40534652,-99999.0,'11111222,11111222,99999999' 
TABS,ioos:station:wmo:42049:1,2017-10-04T11:30:00Z,28.3507,-96.0058,2.0,248.8924768,89.1941618,-99999.0,'11111222,11111222,99999999' 
TABS,ioos:station:wmo:42049:1,2017-10-04T12:00:00Z,28.3507,-96.0058,2.0,242.8668139,74.46471983,-99999.0,'11111222,11111222,99999999' 
TABS,ioos:station:wmo:42049:1,2017-10-04T12:30:00Z,28.3507,-96.0058,2.0,244.3016434,62.35765951,-99999.0,'11111222,11111222,99999999' 
TABS,ioos:station:wmo:42049:1,2017-10-04T13:00:00Z,28.3507,-96.0058,2.0,250.0715231,64.07685386,-99999.0,'11111222,11111222,99999999' 
TABS,ioos:station:wmo:42049:1,2017-10-04T13:30:00Z,28.3507,-96.0058,2.0,243.0183231,59.70906296,-99999.0,'11111222,11111222,99999999' 
TABS,ioos:station:wmo:42049:1,2017-10-04T14:00:00Z,28.3507,-96.0058,2.0,248.8859227,77.20282702,-99999.0,'11111222,11111222,99999999' 
TABS,ioos:station:wmo:42049:1,2017-10-04T14:30:00Z,28.3507,-96.0058,2.0,244.375601,64.53715364,-99999.0,'11111222,11111222,99999999' 
TABS,ioos:station:wmo:42049:1,2017-10-04T15:00:00Z,28.3507,-96.0058,2.0,248.4286826,68.78768058,-99999.0,'11111222,11111222,99999999' 
TABS,ioos:station:wmo:42049:1,2017-10-04T15:30:00Z,28.3507,-96.0058,2.0,239.4435097,101.0066478,-99999.0,'11111222,11111222,99999999' 
TABS,ioos:station:wmo:42049:1,2017-10-04T16:00:00Z,28.3507,-96.0058,2.0,241.5559299,106.6775332,-99999.0,'11111222,11111222,99999999' 